We konden geen weer-waarchuwingen ophalen. Ga rechtstreeks naar de Meteoalarm site : www.meteoalarm.eu en controleer daar .



Onweer radar Meer informatie blitzortung!


Regen radar Meer informatie rain snow radar


Bezoek onze andere website:

Template documentation
and downloads

And another site



15 daagse weersverwachting Villeurbanne (FR)

  • Overzicht
  • Per uur
  • 15 dagen
  • Extra
  • Vergelijk
  • Kaarten
  • Dagkaart
  • Meer »
  • Info
  • Statistieken
  • Directe link
    Temp 6h Neerslag Wind  
 06:45     20:45    Daglengte: 14:00 Vandaag
14:00
28°
 
2
20:00
22°
5.3 mm
2
 06:46     20:43    Daglengte: 13:57 Morgen
02:00
20°
9.6 mm
1
08:00
19°
10.7 mm
2
14:00
23°
 
4
20:00
22°
2.0 mm
5
warningclass
 06:47     20:42    Daglengte: 13:55 Vrijdag 19 Aug
02:00
20°
8.7 mm
2
08:00
20°
 
3
14:00
26°
 
5
20:00
25°
 
3
 06:48     20:40    Daglengte: 13:52 Zaterdag 20 Aug
02:00
21°
 
2
08:00
20°
 
1
Locatie info
Region: Rhône-Alpes
Latitude: 45.7696°N
Longitude: 4.8791°E
173 masl
Postcode: 69100
Temp/Neerslag /Baro Onweer/Dauwpunt
    Temp Baro 1h Neerslag Dauwpunt Wind UV Bewolking  
 06:45     20:45    Daglengte: 14:00 Vandaag
13:00
28°
1009.8 hPa
48%
15.2°
3
Windvlaag: 5.5 m/s
45%
14:00
28°
1009.7 hPa
82%
21.2°
2
Windvlaag: 6.7 m/s
32%
15:00
28°
1009.2 hPa
82%
21.6°
3
Windvlaag: 4.9 m/s
44%
16:00
28°
1009.2 hPa
79%
16.8°
3
Windvlaag: 5 m/s
50% warningclass
17:00
28°
1009.0 hPa
82%
17.0°
3
Windvlaag: 7.4 m/s
55% warningclass
18:00
26°
1009.2 hPa 2.0 mm
82%
16.0°
3
Windvlaag: 3.8 m/s
78% warningclass
19:00
23°
1009.9 hPa 3.3 mm
81%
12.0°
3
Windvlaag: 3 m/s
74%
20:00
22°
1010.0 hPa
62%
12.0°
2
Windvlaag: -3.2 m/s
74%
21:00
22°
1010.9 hPa
36%
13.3°
1
Windvlaag: -2.9 m/s
70%
22:00
21°
1011.4 hPa
74%
15.7°
2
Windvlaag: 3 m/s
67%
23:00
21°
1011.6 hPa 1.8 mm
81%
16.1°
2
Windvlaag: 4.6 m/s
85%
 06:46     20:43    Daglengte: 13:57 Morgen
00:00
20°
1011.7 hPa 1.9 mm
82%
15.7°
2
Windvlaag: 4.9 m/s
82%
01:00
20°
1011.8 hPa 3.6 mm
82%
15.7°
1
Windvlaag: 4.6 m/s
79%
02:00
20°
1011.9 hPa 2.3 mm
80%
15.9°
1
Windvlaag: 2 m/s
75%
03:00
19°
1011.8 hPa 2.9 mm
82%
15.9°
1
Windvlaag: 1 m/s
77% warningclass
04:00
19°
1011.8 hPa 2.8 mm
82%
16.3°
1
Windvlaag: 1.2 m/s
78%
05:00
19°
1011.8 hPa 2.6 mm
82%
16.1°
2
Windvlaag: -1 m/s
83% warningclass
06:00
19°
1011.8 hPa 2.4 mm
82%
16.0°
2
Windvlaag: -2.5 m/s
84%
07:00
19°
1012.0 hPa
76%
16.5°
2
Windvlaag: -0.8 m/s
73%
08:00
19°
1012.3 hPa
33%
16.2°
2
Windvlaag: -1.8 m/s
81%
09:00
20°
1012.7 hPa
78%
16.7°
2
Windvlaag: -1.4 m/s
71%
10:00
20°
1013.0 hPa
81%
15.9°
2
Windvlaag: -0.5 m/s
78% warningclass
11:00
21°
1013.2 hPa
81%
13.6°
2
Windvlaag: -1.8 m/s
82%
12:00
22°
1013.2 hPa
82%
12.7°
3
Windvlaag: -2.9 m/s
75%
13:00
23°
1013.1 hPa
82%
13.5°
3
Windvlaag: -3.5 m/s
72%
14:00
23°
1012.8 hPa
82%
12.4°
4
Windvlaag: -4 m/s
66%
15:00
23°
1012.4 hPa
81%
14.9°
4
Windvlaag: -4 m/s
66%
16:00
24°
1012.0 hPa
81%
14.9°
4
Windvlaag: -3.7 m/s
75%
17:00
24°
1011.8 hPa
82%
15.0°
4
Windvlaag: -4.1 m/s
69%
18:00
23°
1011.9 hPa 2.0 mm
82%
15.1°
5
Windvlaag: -4.8 m/s
66% warningclass
19:00
23°
1012.3 hPa
82%
14.3°
5
Windvlaag: -4.9 m/s
76%
20:00
22°
1012.6 hPa
81%
14.2°
5
Windvlaag: -4.2 m/s
86%
21:00
21°
1013.1 hPa
82%
14.2°
4
Windvlaag: -4.6 m/s
83%
22:00
21°
1013.6 hPa 4.3 mm
82%
12.9°
4
Windvlaag: -3 m/s
85% warningclass
23:00
21°
1013.9 hPa 4.4 mm
77%
12.2°
3
Windvlaag: -4.1 m/s
69% warningclass
 06:47     20:42    Daglengte: 13:55 Vrijdag 19 Aug
00:00
21°
1014.1 hPa
72%
12.9°
3
Windvlaag: -1.9 m/s
79%
01:00
21°
1014.1 hPa
77%
13.0°
3
Windvlaag: -1.5 m/s
78%
02:00
20°
1014.3 hPa
70%
13.6°
2
Windvlaag: -1.3 m/s
77%
03:00
20°
1014.5 hPa
70%
13.4°
2
Windvlaag: -1.4 m/s
78%
04:00
20°
1014.6 hPa
69%
13.9°
2
Windvlaag: -0.8 m/s
27%
05:00
20°
1014.7 hPa
72%
14.3°
2
Windvlaag: -0.9 m/s
79%
06:00
20°
1015.3 hPa
60%
14.8°
2
Windvlaag: -0.2 m/s
67%
07:00
20°
1015.8 hPa
19%
15.0°
3
Windvlaag: -1.5 m/s
20%
08:00
20°
1016.1 hPa
16%
15.0°
3
Windvlaag: -2.2 m/s
17%
09:00
21°
1016.5 hPa
14%
14.9°
4
Windvlaag: -2.3 m/s
21%
10:00
22°
1017.1 hPa
14%
14.9°
5
Windvlaag: -3.5 m/s
15%
11:00
23°
1017.4 hPa
21%
14.9°
5
Windvlaag: -3.7 m/s
63%
12:00
24°
1017.4 hPa
21%
14.7°
5
Windvlaag: -3.5 m/s
69%
13:00
25°
1017.3 hPa
21%
13.3°
5
Windvlaag: -2.6 m/s
32%
14:00
26°
1017.0 hPa
21%
11.6°
5
Windvlaag: -5.5 m/s
11%
15:00
26°
Voelt als: 26.4°
1016.8 hPa
22%
11.3°
5
Windvlaag: -6 m/s
7%
16:00
27°
Voelt als: 26.6°
1016.6 hPa
21%
11.2°
5
Windvlaag: -5.9 m/s
38%
17:00
27°
Voelt als: 26.7°
1016.4 hPa
21%
11.3°
5
Windvlaag: -5.5 m/s
5%
18:00
27°
Voelt als: 26.5°
1016.3 hPa
21%
11.1°
5
Windvlaag: -5.5 m/s
13%
19:00
26°
1016.4 hPa
21%
11.5°
4
Windvlaag: -5.7 m/s
20%
20:00
25°
1016.7 hPa
21%
11.1°
3
Windvlaag: -4.2 m/s
11%
21:00
24°
1017.4 hPa
21%
10.6°
3
Windvlaag: -1.7 m/s
4%
22:00
23°
1018.2 hPa
21%
11.8°
3
Windvlaag: -1.5 m/s
3%
23:00
22°
1018.5 hPa
21%
13.1°
2
Windvlaag: -1.4 m/s
5%
 06:48     20:40    Daglengte: 13:52 Zaterdag 20 Aug
00:00
21°
1018.6 hPa
21%
13.1°
2
Windvlaag: -0.5 m/s
6%
01:00
21°
1018.8 hPa
21%
12.9°
2
Windvlaag: 0.5 m/s
9%
02:00
21°
1018.6 hPa
21%
13.4°
2
Windvlaag: 0.3 m/s
23%
03:00
20°
1018.5 hPa
21%
13.8°
2
Windvlaag: 0.2 m/s
17%
04:00
20°
1018.7 hPa
21%
14.2°
2
Windvlaag: -1.3 m/s
34%
05:00
20°
1018.7 hPa
21%
14.3°
2
Windvlaag: -1.6 m/s
28%
06:00
19°
1018.4 hPa
21%
14.6°
1
Windvlaag: 4.1 m/s
17%
07:00
19°
1018.9 hPa
22%
14.6°
1
Windvlaag: 3.9 m/s
22%
08:00
20°
1019.4 hPa
22%
15.1°
1
Windvlaag: 3.3 m/s
20%
09:00
22°
1019.5 hPa
67%
16.2°
1
Windvlaag: 3.1 m/s
18%
10:00
23°
1019.3 hPa
21%
16.3°
2
Windvlaag: 3.8 m/s
15%
11:00
24°
1019.2 hPa
21%
16.4°
3
Windvlaag: 4.8 m/s
15%
12:00
25°
1018.9 hPa
21%
16.0°
3
Windvlaag: 4.7 m/s
14%
Temp/Neerslag /Baro Onweer/Dauwpunt
    Temp Baro Neerslag Dauwpunt Wind Bewolking  
 06:45     20:45    Daglengte: 14:00 Vandaag
14:00
28°
1009.7 hPa   21.2°
2
32%
17:00
28°
1009.0 hPa   17.0°
3
55% warningclass
20:00
22°
1010.0 hPa 5.3 mm 12.0°
2
74%
23:00
21°
1011.6 hPa 1.8 mm 16.1°
2
85%
 06:46     20:43    Daglengte: 13:57 Morgen
02:00
20°
1011.9 hPa 7.8 mm 15.9°
1
75%
05:00
19°
1011.8 hPa 8.3 mm 16.1°
2
83% warningclass
08:00
19°
1012.3 hPa 2.4 mm 16.2°
2
81%
11:00
21°
1013.2 hPa   13.6°
2
82%
14:00
23°
1012.8 hPa   12.4°
4
66%
17:00
24°
1011.8 hPa   15.0°
4
69%
20:00
22°
1012.6 hPa 2.0 mm 14.2°
5
86% warningclass
23:00
21°
1013.9 hPa 8.7 mm 12.2°
3
69% warningclass
 06:47     20:42    Daglengte: 13:55 Vrijdag 19 Aug
02:00
20°
1014.3 hPa   13.6°
2
77%
05:00
20°
1014.7 hPa   14.3°
2
79%
08:00
20°
1016.1 hPa   15.0°
3
17%
11:00
23°
1017.4 hPa   14.9°
5
63%
14:00
26°
1017.0 hPa   11.6°
5
11%
17:00
27°
Voelt als: 26.7°
1016.4 hPa   11.3°
5
5%
20:00
25°
1016.7 hPa   11.1°
3
11%
23:00
22°
1018.5 hPa   13.1°
2
5%
 06:48     20:40    Daglengte: 13:52 Zaterdag 20 Aug
02:00
21°
1018.6 hPa   13.4°
2
23%
05:00
20°
1018.7 hPa   14.3°
2
28%
08:00
20°
1019.4 hPa   15.1°
1
20%
11:00
24°
1019.2 hPa   16.4°
3
15%
14:00
27°
1018.6 hPa   14.8°
3
19%
17:00
28°
Voelt als: 27.6°
1017.9 hPa 20.8 mm 13.0°
5
0%
20:00
24°
1018.4 hPa 20.8 mm 14.3°
3
1%
23:00
21°
1019.1 hPa 20.8 mm 13.5°
2
0%
 06:50     20:38    Daglengte: 13:48 Zondag 21 Aug
02:00
19°
1019.0 hPa 20.8 mm 12.8°
2
0%
05:00
17°
1018.1 hPa 20.8 mm 11.3°
1
1%
08:00
18°
1018.1 hPa 20.8 mm 10.6°
1
1%
11:00
23°
1017.7 hPa 20.8 mm 9.7°
2
1%
14:00
28°
Voelt als: 26.7°
1015.6 hPa 20.8 mm 6.8°
2
1%
17:00
28°
Voelt als: 27.2°
1014.2 hPa 20.8 mm 5.9°
3
1%
20:00
25°
1013.8 hPa 20.8 mm 7.5°
2
1%
23:00
23°
1014.1 hPa 20.8 mm 7.6°
2
1%
 06:51     20:36    Daglengte: 13:45 Maandag 22 Aug
02:00
21°
1013.9 hPa 20.8 mm 8.1°
2
1%
05:00
19°
1013.7 hPa 20.8 mm 7.9°
2
1%
08:00
19°
1014.3 hPa 20.8 mm 8.7°
2
1%
11:00
25°
1013.6 hPa 20.8 mm 9.0°
2
1%
14:00
28°
Voelt als: 27.0°
1012.8 hPa 20.8 mm 8.1°
3
1%
17:00
26°
Voelt als: 26.0°
1012.8 hPa 20.8 mm 8.1°
6
1%
20:00
21°
1014.2 hPa 20.8 mm 10.0°
3
1%
23:00
19°
1015.5 hPa 20.9 mm 12.9°
2
1%
 06:52     20:35    Daglengte: 13:43 Dinsdag 23 Aug
02:00
19°
1015.1 hPa 20.9 mm 13.2°
0
1%
05:00
18°
1014.9 hPa 20.9 mm 13.6°
1
1%
08:00
18°
1015.5 hPa 20.9 mm 13.8°
0
1%
11:00
24°
1015.4 hPa 20.9 mm 15.0°
1
1%
14:00
29°
Voelt als: 28.4°
1013.6 hPa 20.9 mm 14.4°
1
1%
17:00
30°
Voelt als: 29.3°
1012.3 hPa 20.9 mm 13.2°
2
0%
20:00
27°
1012.7 hPa 20.9 mm 13.7°
2
0%
23:00
23°
1013.9 hPa 20.9 mm 13.7°
1
1%
 06:53     20:33    Daglengte: 13:40 Woensdag 24 Aug
02:00
21°
1013.9 hPa 20.9 mm 13.8°
1
1%
05:00
20°
1013.7 hPa 20.9 mm 14.1°
1
1%
08:00
20°
1013.7 hPa 20.9 mm 14.5°
1
1%
11:00
26°
1013.4 hPa   15.1°
2
0%
14:00
32°
Voelt als: 31.2°
1012.0 hPa 41.7 mm 15.0°
2
0%
20:00
20°
1014.7 hPa 78.4 mm 16.9°
3
1%
 06:54     20:31    Daglengte: 13:37 Donderdag 25 Aug
02:00
19°
1015.7 hPa 107.6 mm 16.6°
1
1%
08:00
19°
1017.4 hPa 107.6 mm 16.2°
0
0%
14:00
28°
1016.5 hPa 107.6 mm 17.0°
2
0%
20:00
26°
1015.1 hPa 107.6 mm 16.7°
2
0%
 06:56     20:29    Daglengte: 13:33 Vrijdag 26 Aug
02:00
21°
1016.5 hPa 107.6 mm 16.0°
1
1%
08:00
20°
1017.0 hPa 107.6 mm 16.3°
0
1%
14:00
30°
1015.2 hPa 107.9 mm 16.3°
1
1%
20:00
24°
1015.1 hPa 111.0 mm 16.2°
2
1%
 06:57     20:27    Daglengte: 13:30 Zaterdag 27 Aug
02:00
20°
1016.3 hPa 115.3 mm 15.3°
1
1%
08:00
20°
1018.4 hPa 0.3 mm 15.5°
0
38%
14:00
31°
Voelt als: 30.4°
1016.5 hPa 0.1 mm 14.2°
1
29%
20:00
27°
Voelt als: 27.2°
1016.8 hPa 0.3 mm 13.6°
1
27%
 06:58     20:26    Daglengte: 13:28 Zondag 28 Aug
02:00
20°
1019.1 hPa 1.2 mm 13.8°
1
37%
08:00
19°
1019.3 hPa 0.3 mm 14.4°
0
39%
14:00
31°
Voelt als: 30.6°
1017.7 hPa   14.0°
0
32%
20:00
27°
Voelt als: 27.3°
1017.7 hPa 0.3 mm 13.3°
1
38%
 06:59     20:24    Daglengte: 13:25 Maandag 29 Aug
02:00
20°
1020.0 hPa 0.6 mm 13.8°
1
31%
08:00
19°
1020.3 hPa 0.3 mm 14.6°
1
39%
14:00
32°
Voelt als: 30.9°
1018.6 hPa 0.1 mm 13.4°
0
32%
20:00
27°
Voelt als: 27.3°
1018.5 hPa 0.4 mm 13.7°
1
37%
 07:01     20:22    Daglengte: 13:21 Dinsdag 30 Aug
02:00
20°
1020.3 hPa 0.7 mm 14.0°
1
37%
08:00
19°
1020.2 hPa 0.4 mm 14.5°
0
43%
14:00
32°
Voelt als: 30.7°
1018.2 hPa 0.1 mm 13.7°
0
30%
20:00
27°
1017.7 hPa 0.6 mm 14.0°
1
39%
 07:02     20:20    Daglengte: 13:18 Woensdag 31 Aug
02:00
20°
1019.5 hPa 1.2 mm 14.6°
1
45%
08:00
19°
1019.2 hPa 0.6 mm 15.2°
0
50%
14:00
30°
Voelt als: 29.4°
1017.6 hPa 0.3 mm 15.3°
1
41%
20:00
26°
1017.3 hPa 0.3 mm 14.4°
1
37%
 07:03     20:18    Daglengte: 13:15 Donderdag 01 Sep
02:00
20°
1018.9 hPa 0.5 mm 14.5°
1
36%
08:00
19°
1018.6 hPa 0.1 mm 14.5°
0
34%
  CAPE Lifted Index Hail Supercell Tornado SRH 3km CL BTM PRES CL TOP PRES Swiss DWD icon SMHI TS
 06:45     20:45    Daglengte: 14:00 Vandaag
13:00 0 J/kg 1.7 K 0 % 0 % 0 % 0 m²/s² 0 0 3.8 3
14:00 0 J/kg -0.6 K 0 % 0 % 0 % 0 m²/s² 0 0 1.14 3
15:00 205 J/kg -1.9 K 0 % 0 % 0 % 0 m²/s² 0 0 0.65 80
16:00 532 J/kg -3.3 K 0 % 0 % 0 % 0 m²/s² 0 0 -1.44 95
17:00 504 J/kg -3.1 K 0 % 0 % 0 % 0 m²/s² 0 0 -1.42 95
18:00 269 J/kg -3.0 K 0 % 0 % 0 % 0 m²/s² 0 0 -1.08 95
19:00 292 J/kg -2.9 K 0 % 0 % 0 % 0 m²/s² 0 0 -1.52 80
20:00 11 J/kg -3.5 K 0 % 0 % 0 % 0 m²/s² 0 0 -2.48 3
21:00 26 J/kg -4.1 K 0 % 0 % 0 % 0 m²/s² 0 0 -2.78 3
22:00 0 J/kg -2.8 K 0 % 0 % 0 % 0 m²/s² 0 0 -0.94 3
23:00 57 J/kg -2.9 K 0 % 0 % 0 % 0 m²/s² 0 0 -0.8 80
 06:46     20:43    Daglengte: 13:57 Morgen
00:00 0 J/kg -2.0 K 0 % 0 % 0 % 0 m²/s² 0 0 0.79 3
01:00 0 J/kg -1.1 K 0 % 0 % 0 % 0 m²/s² 0 0 1.84 81
02:00 62 J/kg -2.2 K 0 % 0 % 0 % 0 m²/s² 0 0 0.8 3
03:00 0 J/kg -2.7 K 0 % 0 % 0 % 0 m²/s² 0 0 0.66 95
04:00 76 J/kg -3.0 K 0 % 0 % 0 % 0 m²/s² 0 0 -0.09 80
05:00 53 J/kg -3.2 K 0 % 0 % 0 % 0 m²/s² 0 0 0.07 95
06:00 5 J/kg -3.3 K 0 % 0 % 0 % 0 m²/s² 0 0 -0.54 80
07:00 0 J/kg -2.3 K 0 % 0 % 0 % 0 m²/s² 0 0 0.01 3
08:00 0 J/kg -1.2 K 0 % 0 % 0 % 0 m²/s² 0 0 0.63 3
09:00 23 J/kg -0.6 K 0 % 0 % 0 % 0 m²/s² 0 0 0.99 80
10:00 101 J/kg -1.1 K 0 % 0 % 0 % 0 m²/s² 0 0 0.73 95
11:00 204 J/kg -1.4 K 0 % 0 % 0 % 0 m²/s² 0 0 0.37 80
12:00 290 J/kg -2.1 K 0 % 0 % 0 % 0 m²/s² 0 0 0.21 80
13:00 450 J/kg -2.4 K 0 % 0 % 0 % 0 m²/s² 0 0 0.12 80
14:00 503 J/kg -2.9 K 0 % 0 % 0 % 0 m²/s² 0 0 -0.38 3
15:00 471 J/kg -3.1 K 0 % 0 % 0 % 0 m²/s² 0 0 -0.25 3
16:00 570 J/kg -3.9 K 0 % 0 % 0 % 0 m²/s² 0 0 -0.99 3
17:00 834 J/kg -4.7 K 0 % 0 % 0 % 0 m²/s² 0 0 -1.94 3
18:00 1102 J/kg -5.3 K 0 % 0 % 0 % 0 m²/s² 0 0 -2.3 95
19:00 1367 J/kg -5.8 K 0 % 0 % 0 % 0 m²/s² 0 0 -3.34 80
20:00 1167 J/kg -4.6 K 0 % 0 % 0 % 0 m²/s² 0 0 -2.29 61
21:00 1209 J/kg -4.9 K 0 % 0 % 0 % 0 m²/s² 0 0 -4.45 61
22:00 990 J/kg -4.6 K 0 % 0 % 0 % 0 m²/s² 0 0 -3.97 61
23:00 693 J/kg -3.4 K 0 % 0 % 0 % 0 m²/s² 0 0 -2.38 61
 06:47     20:42    Daglengte: 13:55 Vrijdag 19 Aug
00:00 643 J/kg -3.5 K 0 % 0 % 0 % 0 m²/s² 0 0 -2.93 3
01:00 347 J/kg -2.6 K 0 % 0 % 0 % 0 m²/s² 0 0 -1.88 3
02:00 297 J/kg -2.7 K 0 % 0 % 0 % 0 m²/s² 0 0 -2.16 3
03:00 192 J/kg -2.5 K 0 % 0 % 0 % 0 m²/s² 0 0 -0.91 3
04:00 228 J/kg -1.8 K 0 % 0 % 0 % 0 m²/s² 0 0 -0.21 3
05:00 138 J/kg -1.1 K 0 % 0 % 0 % 0 m²/s² 0 0 0.37 3
06:00 40 J/kg -0.5 K 0 % 0 % 0 % 0 m²/s² 0 0 0.76 3
07:00 0 J/kg 0.1 K 0 % 0 % 0 % 0 m²/s² 0 0 1.48 2
08:00 0 J/kg 0.4 K 0 % 0 % 0 % 0 m²/s² 0 0 1.66 2
09:00 0 J/kg 0.8 K 0 % 0 % 0 % 0 m²/s² 0 0 2.45 2
10:00 116 J/kg 0.1 K 0 % 0 % 0 % 0 m²/s² 0 0 1.51 2
11:00 158 J/kg -0.1 K 0 % 0 % 0 % 0 m²/s² 0 0 1.88 2
12:00 238 J/kg -0.4 K 0 % 0 % 0 % 0 m²/s² 0 0 2.12 2
13:00 87 J/kg 1.3 K 0 % 0 % 0 % 0 m²/s² 0 0 4.21 2
14:00 1 J/kg 2.6 K 0 % 0 % 0 % 0 m²/s² 0 0 6.44 2
15:00 2 J/kg 2.4 K 0 % 0 % 0 % 0 m²/s² 0 0 6.57 2
16:00 8 J/kg 2.4 K 0 % 0 % 0 % 0 m²/s² 0 0 6.69 2
17:00 10 J/kg 2.3 K 0 % 0 % 0 % 0 m²/s² 0 0 6.26 1
18:00 6 J/kg 2.1 K 0 % 0 % 0 % 0 m²/s² 0 0 5.49 1
19:00 0 J/kg 2.0 K 0 % 0 % 0 % 0 m²/s² 0 0 4.97 0
20:00 0 J/kg 2.3 K 0 % 0 % 0 % 0 m²/s² 0 0 5.09 0
21:00 0 J/kg 2.6 K 0 % 0 % 0 % 0 m²/s² 0 0 5.24 2
22:00 0 J/kg 1.0 K 0 % 0 % 0 % 0 m²/s² 0 0 3.49 1
23:00 37 J/kg 0.5 K 0 % 0 % 0 % 0 m²/s² 0 0 2.48 1
 06:48     20:40    Daglengte: 13:52 Zaterdag 20 Aug
00:00 0 J/kg 0.8 K 0 % 0 % 0 % 0 m²/s² 0 0 2.72 2
01:00 13 J/kg 0.5 K 0 % 0 % 0 % 0 m²/s² 0 0 1.94 2
02:00 0 J/kg 0.3 K 0 % 0 % 0 % 0 m²/s² 0 0 1.86 2
03:00 0 J/kg 0.1 K 0 % 0 % 0 % 0 m²/s² 0 0 1.36 2
04:00 0 J/kg 0.2 K 0 % 0 % 0 % 0 m²/s² 0 0 2 1
05:00 0 J/kg 0.4 K 0 % 0 % 0 % 0 m²/s² 0 0 2.5 2
06:00 0 J/kg 0.3 K 0 % 0 % 0 % 0 m²/s² 0 0 2.91 2
07:00 0 J/kg 0.2 K 0 % 0 % 0 % 0 m²/s² 0 0 3.05 2
08:00 0 J/kg 0.3 K 0 % 0 % 0 % 0 m²/s² 0 0 3.75 2
09:00 0 J/kg 0.3 K 0 % 0 % 0 % 0 m²/s² 0 0 4.05 2
10:00 16 J/kg 0.2 K 0 % 0 % 0 % 0 m²/s² 0 0 4.25 1
11:00 163 J/kg -0.4 K 0 % 0 % 0 % 0 m²/s² 0 0 3.98 1
12:00 348 J/kg -1.1 K 0 % 0 % 0 % 0 m²/s² 0 0 3.52 2
Temp Baro Wind Neerslag
  EWN Forecast EWN WRFDA DWD ICON FMI HIRLAM MET Norway GFS
 06:45     20:45    Daglengte: 14:00 Vandaag
14:00 28.0° 1009.7 hPa 2.4 m/s 0.0 mm 23.1° 1010.6 hPa 4.7 m/s 12.6 mm 29.4° 1009.2 hPa 4.9 m/s -1.7 mm 26.3° 1009.9 hPa 1.9 m/s 0.0 mm 29.7° 1008.9 hPa 2.3 m/s
17:00 27.7° 1009.0 hPa 3.4 m/s 0.0 mm 27.2° 1008.6 hPa 4.5 m/s 18.9 mm 22.0° 1011.3 hPa 2.3 m/s 2.5 mm 28.2° 1008.8 hPa 3.4 m/s 0.0 mm 19.7° 1009.7 hPa 8.2 m/s
20:00 22.4° 1010.0 hPa 2.4 m/s 5.3 mm 24.3° 1008.5 hPa 4.5 m/s 18.9 mm 20.6° 1011.6 hPa 1.0 m/s 3.3 mm 26.5° 1008.8 hPa 2.4 m/s 0.0 mm 18.8° 1011.8 hPa 2.9 m/s
23:00 20.8° 1011.6 hPa 1.9 m/s 1.8 mm 21.6° 1011.0 hPa 4.2 m/s 20.1 mm 20.1° 1012.6 hPa 0.8 m/s 0.5 mm 22.2° 1010.4 hPa 2.7 m/s 0.0 mm 17.1° 1014.5 hPa 2.4 m/s
 06:46     20:43    Daglengte: 13:57 Morgen
02:00 19.6° 1011.9 hPa 1.2 m/s 7.8 mm 20.8° 1009.7 hPa 1.8 m/s 20.7 mm 19.5° 1012.8 hPa 0.9 m/s 4.2 mm 19.6° 1009.7 hPa 3.2 m/s 0.0 mm 16.6° 1014.3 hPa 2.1 m/s
05:00 19.1° 1011.8 hPa 1.7 m/s 8.3 mm 19.1° 1009.9 hPa 0.3 m/s 20.7 mm 19.1° 1012.7 hPa 0.8 m/s 4.9 mm 18.5° 1009.9 hPa 3.8 m/s 0.0 mm 16.1° 1012.0 hPa 0.6 m/s
08:00 18.7° 1012.3 hPa 2.3 m/s 2.4 mm 18.9° 1010.8 hPa 2.8 m/s 20.7 mm 19.4° 1012.8 hPa 0.8 m/s 1.1 mm 18.2° 1010.3 hPa 2.6 m/s 0.0 mm 16.4° 1013.2 hPa 0.9 m/s
11:00 21.1° 1013.2 hPa 2.4 m/s 0.0 mm 22.8° 1011.1 hPa 2.1 m/s 20.7 mm 20.3° 1013.8 hPa 2.3 m/s 1.8 mm 24.0° 1011.1 hPa 4.1 m/s 0.0 mm 21.3° 1013.7 hPa 2.0 m/s
14:00 23.3° 1012.8 hPa 3.5 m/s 0.0 mm 26.8° 1008.7 hPa 3.9 m/s 20.7 mm 21.4° 1013.6 hPa 2.9 m/s 1.4 mm 26.9° 1011.0 hPa 6.8 m/s 0.0 mm 24.1° 1012.0 hPa 3.5 m/s
17:00 23.8° 1011.8 hPa 3.9 m/s 0.0 mm 27.3° 1007.5 hPa 6.1 m/s 20.9 mm 22.7° 1012.2 hPa 2.6 m/s 0.3 mm 25.5° 1011.5 hPa 6.5 m/s 0.0 mm 25.1° 1011.3 hPa 4.9 m/s
20:00 21.9° 1012.6 hPa 4.9 m/s 2.0 mm 25.1° 1008.0 hPa 7.1 m/s 22.5 mm 21.2° 1013.1 hPa 3.2 m/s 2.5 mm 24.2° 1012.1 hPa 5.1 m/s 0.0 mm 22.3° 1011.6 hPa 4.2 m/s
23:00 20.9° 1013.9 hPa 3.1 m/s 8.7 mm 23.8° 1010.2 hPa 4.3 m/s 58.5 mm 20.5° 1014.0 hPa 0.9 m/s 1.4 mm 22.7° 1014.0 hPa 5.2 m/s 0.0 mm 19.8° 1013.7 hPa 2.4 m/s
 06:47     20:42    Daglengte: 13:55 Vrijdag 19 Aug
02:00 20.4° 1014.3 hPa 2.5 m/s 0.0 mm 22.7° 1011.0 hPa 4.2 m/s 68.4 mm 20.2° 1014.1 hPa 0.8 m/s 0.1 mm 21.4° 1014.6 hPa 4.0 m/s 0.0 mm 19.0° 1013.7 hPa 2.3 m/s
05:00 19.8° 1014.7 hPa 1.7 m/s 0.0 mm 21.2° 1011.8 hPa 3.8 m/s 73.3 mm 19.8° 1014.4 hPa 0.7 m/s 0.1 mm 20.2° 1014.9 hPa 3.8 m/s 0.0 mm 18.5° 1013.8 hPa 1.8 m/s
08:00 19.9° 1016.1 hPa 3.2 m/s 0.0 mm 20.8° 1013.5 hPa 4.3 m/s 73.7 mm 20.0° 1016.0 hPa 2.3 m/s 0.0 mm 20.0° 1016.3 hPa 5.0 m/s 0.0 mm 18.1° 1016.3 hPa 2.0 m/s
11:00 22.7° 1017.4 hPa 4.8 m/s 0.0 mm 23.4° 1015.6 hPa 5.7 m/s 73.7 mm 23.6° 1017.3 hPa 4.2 m/s 0.0 mm 22.7° 1016.9 hPa 3.1 m/s
14:00 25.9° 1017.0 hPa 5.2 m/s 0.0 mm 26.6° 1015.5 hPa 6.7 m/s 73.7 mm 26.6° 1016.9 hPa 5.0 m/s 0.0 mm 24.8° 1016.9 hPa 5.3 m/s
17:00 26.9° 1016.4 hPa 5.0 m/s 0.0 mm 27.7° 1015.4 hPa 5.8 m/s 73.7 mm 27.4° 1016.2 hPa 4.9 m/s 0.0 mm 26.8° 1016.3 hPa 5.0 m/s
20:00 25.3° 1016.7 hPa 3.3 m/s 0.0 mm 26.5° 1016.2 hPa 5.5 m/s 73.7 mm 25.9° 1016.4 hPa 2.8 m/s 0.0 mm 23.9° 1017.2 hPa 2.5 m/s
23:00 21.9° 1018.5 hPa 2.1 m/s 0.0 mm 23.8° 1018.3 hPa 3.4 m/s 73.7 mm 22.2° 1018.3 hPa 1.8 m/s 0.0 mm 21.7° 1018.4 hPa 1.9 m/s
 06:48     20:40    Daglengte: 13:52 Zaterdag 20 Aug
02:00 20.6° 1018.6 hPa 1.8 m/s 0.0 mm 22.5° 1018.3 hPa 3.9 m/s 73.7 mm 21.0° 1018.4 hPa 0.8 m/s 0.0 mm 20.0° 1018.7 hPa 1.2 m/s
05:00 19.6° 1018.7 hPa 1.7 m/s 0.0 mm 20.5° 1018.7 hPa 1.6 m/s 73.7 mm 19.8° 1018.2 hPa 0.6 m/s 0.0 mm 18.7° 1018.9 hPa 1.5 m/s
08:00 19.8° 1019.4 hPa 0.8 m/s 0.0 mm 20.0° 1019.4 hPa 1.3 m/s 73.7 mm 19.7° 1019.4 hPa 0.7 m/s 0.0 mm 19.9° 1019.4 hPa 1.1 m/s
11:00 24.2° 1019.2 hPa 2.7 m/s 0.0 mm 23.6° 1019.4 hPa 2.1 m/s 73.7 mm 24.4° 1019.1 hPa 2.8 m/s 0.0 mm 24.4° 1019.3 hPa 3.5 m/s
14:00 26.7° 1018.6 hPa 3.5 m/s 0.0 mm 27.0° 1018.5 hPa 3.6 m/s 73.7 mm 26.6° 1018.6 hPa 3.4 m/s 0.0 mm 27.6° 1018.4 hPa 4.9 m/s
17:00 27.9° 1017.9 hPa 4.7 m/s 20.8 mm 27.9° 1017.9 hPa 4.7 m/s 20.8 mm
20:00 24.4° 1018.4 hPa 2.6 m/s 20.8 mm 24.4° 1018.4 hPa 2.6 m/s 20.8 mm
23:00 20.9° 1019.1 hPa 1.6 m/s 20.8 mm 20.9° 1019.1 hPa 1.6 m/s 20.8 mm
 06:50     20:38    Daglengte: 13:48 Zondag 21 Aug
02:00 18.9° 1019.0 hPa 1.8 m/s 20.8 mm 18.9° 1019.0 hPa 1.8 m/s 20.8 mm
05:00 17.2° 1018.1 hPa 1.3 m/s 20.8 mm 17.2° 1018.1 hPa 1.3 m/s 20.8 mm
08:00 17.7° 1018.1 hPa 1.0 m/s 20.8 mm 17.7° 1018.1 hPa 1.0 m/s 20.8 mm
11:00 22.6° 1017.7 hPa 1.8 m/s 20.8 mm 22.6° 1017.7 hPa 1.8 m/s 20.8 mm
14:00 27.6° 1015.6 hPa 2.5 m/s 20.8 mm 27.6° 1015.6 hPa 2.4 m/s 20.8 mm
17:00 28.5° 1014.2 hPa 2.6 m/s 20.8 mm 28.5° 1014.2 hPa 2.6 m/s 20.8 mm
20:00 25.0° 1013.8 hPa 2.2 m/s 20.8 mm 25.0° 1013.8 hPa 2.2 m/s 20.8 mm
23:00 22.7° 1014.1 hPa 1.6 m/s 20.8 mm 22.7° 1014.1 hPa 1.6 m/s 20.8 mm
 06:51     20:36    Daglengte: 13:45 Maandag 22 Aug
02:00 21.2° 1013.9 hPa 1.5 m/s 20.8 mm 21.2° 1013.9 hPa 1.5 m/s 20.8 mm
05:00 19.1° 1013.7 hPa 1.6 m/s 20.8 mm 19.1° 1013.7 hPa 1.6 m/s 20.8 mm
08:00 18.7° 1014.3 hPa 1.6 m/s 20.8 mm 18.7° 1014.3 hPa 1.6 m/s 20.8 mm
11:00 24.8° 1013.6 hPa 1.9 m/s 20.8 mm 24.8° 1013.6 hPa 1.9 m/s 20.8 mm
14:00 27.9° 1012.8 hPa 3.3 m/s 20.8 mm 27.9° 1012.8 hPa 3.3 m/s 20.8 mm
17:00 26.2° 1012.8 hPa 6.2 m/s 20.8 mm 26.2° 1012.8 hPa 6.2 m/s 20.8 mm
20:00 20.8° 1014.2 hPa 2.7 m/s 20.8 mm 20.8° 1014.2 hPa 2.7 m/s 20.8 mm
23:00 18.7° 1015.5 hPa 1.5 m/s 20.9 mm 18.7° 1015.5 hPa 1.5 m/s 20.9 mm
 06:52     20:35    Daglengte: 13:43 Dinsdag 23 Aug
02:00 18.7° 1015.1 hPa 0.3 m/s 20.9 mm 18.7° 1015.1 hPa 0.3 m/s 20.9 mm
05:00 17.6° 1014.9 hPa 0.7 m/s 20.9 mm 17.6° 1014.9 hPa 0.7 m/s 20.9 mm
08:00 18.4° 1015.5 hPa 0.4 m/s 20.9 mm 18.4° 1015.5 hPa 0.4 m/s 20.9 mm
11:00 24.3° 1015.4 hPa 0.9 m/s 20.9 mm 24.3° 1015.4 hPa 0.9 m/s 20.9 mm
14:00 28.6° 1013.6 hPa 0.8 m/s 20.9 mm 28.6° 1013.6 hPa 0.8 m/s 20.9 mm
17:00 30.0° 1012.3 hPa 1.9 m/s 20.9 mm 30.0° 1012.3 hPa 1.9 m/s 20.9 mm
20:00 26.6° 1012.7 hPa 2.3 m/s 20.9 mm 26.6° 1012.7 hPa 2.3 m/s 20.9 mm
23:00 22.8° 1013.9 hPa 1.0 m/s 20.9 mm 22.8° 1013.9 hPa 1.0 m/s 20.9 mm
 06:53     20:33    Daglengte: 13:40 Woensdag 24 Aug
02:00 21.0° 1013.9 hPa 0.7 m/s 20.9 mm 21.0° 1013.9 hPa 0.7 m/s 20.9 mm
05:00 19.9° 1013.7 hPa 1.0 m/s 20.9 mm 19.9° 1013.7 hPa 1.0 m/s 20.9 mm
08:00 20.3° 1013.7 hPa 0.7 m/s 20.9 mm 20.3° 1013.7 hPa 0.7 m/s 20.9 mm
11:00 26.3° 1013.4 hPa 2.1 m/s 20.9 mm 26.3° 1013.4 hPa 2.1 m/s 20.9 mm
14:00 31.5° 1012.0 hPa 2.1 m/s 20.9 mm 31.5° 1012.0 hPa 2.1 m/s 20.9 mm
20:00 19.7° 1014.7 hPa 2.5 m/s 53.4 mm 19.7° 1014.7 hPa 2.5 m/s 53.4 mm
 06:54     20:31    Daglengte: 13:37 Donderdag 25 Aug
02:00 19.4° 1015.7 hPa 0.5 m/s 53.8 mm 19.4° 1015.7 hPa 0.5 m/s 53.8 mm
08:00 18.9° 1017.4 hPa 0.3 m/s 53.8 mm 18.9° 1017.4 hPa 0.3 m/s 53.8 mm
14:00 28.3° 1016.5 hPa 1.7 m/s 53.8 mm 28.3° 1016.5 hPa 1.7 m/s 53.8 mm
20:00 26.4° 1015.1 hPa 2.0 m/s 53.8 mm 26.4° 1015.1 hPa 2.0 m/s 53.8 mm
 06:56     20:29    Daglengte: 13:33 Vrijdag 26 Aug
02:00 21.2° 1016.5 hPa 1.0 m/s 53.8 mm 21.2° 1016.5 hPa 1.0 m/s 53.8 mm
08:00 20.2° 1017.0 hPa 0.3 m/s 53.8 mm 20.2° 1017.0 hPa 0.3 m/s 53.8 mm
14:00 29.9° 1015.2 hPa 1.4 m/s 54.0 mm 29.9° 1015.2 hPa 1.4 m/s 54.0 mm
20:00 23.8° 1015.1 hPa 2.1 m/s 57.0 mm 23.8° 1015.1 hPa 2.1 m/s 57.0 mm
 06:57     20:27    Daglengte: 13:30 Zaterdag 27 Aug
02:00 20.3° 1016.3 hPa 1.2 m/s 57.7 mm 20.3° 1016.3 hPa 1.2 m/s 57.7 mm
08:00 19.6° 1018.4 hPa 0.1 m/s 0.3 mm
14:00 31.1° 1016.5 hPa 1.2 m/s 0.1 mm
20:00 27.2° 1016.8 hPa 1.1 m/s 0.3 mm
 06:58     20:26    Daglengte: 13:28 Zondag 28 Aug
02:00 20.2° 1019.1 hPa 0.6 m/s 1.2 mm
08:00 19.0° 1019.3 hPa 0.4 m/s 0.3 mm
14:00 31.3° 1017.7 hPa 0.3 m/s 0.0 mm
20:00 27.4° 1017.7 hPa 0.5 m/s 0.3 mm
 06:59     20:24    Daglengte: 13:25 Maandag 29 Aug
02:00 20.5° 1020.0 hPa 1.0 m/s 0.6 mm
08:00 19.3° 1020.3 hPa 0.6 m/s 0.3 mm
14:00 31.7° 1018.6 hPa 0.5 m/s 0.1 mm
20:00 27.4° 1018.5 hPa 0.6 m/s 0.4 mm
 07:01     20:22    Daglengte: 13:21 Dinsdag 30 Aug
02:00 20.5° 1020.3 hPa 0.6 m/s 0.7 mm
08:00 19.3° 1020.2 hPa 0.4 m/s 0.4 mm
14:00 31.5° 1018.2 hPa 0.5 m/s 0.1 mm
20:00 26.6° 1017.7 hPa 0.9 m/s 0.6 mm
 07:02     20:20    Daglengte: 13:18 Woensdag 31 Aug
02:00 20.2° 1019.5 hPa 0.8 m/s 1.2 mm
08:00 19.1° 1019.2 hPa 0.3 m/s 0.6 mm
14:00 29.6° 1017.6 hPa 1.3 m/s 0.3 mm
20:00 25.9° 1017.3 hPa 1.3 m/s 0.3 mm
 07:03     20:18    Daglengte: 13:15 Donderdag 01 Sep
02:00 19.6° 1018.9 hPa 0.5 m/s 0.5 mm
08:00 18.6° 1018.6 hPa 0.4 m/s 0.1 mm
FMI Hirlam - 7.5 km EWN WRFDA - 12 km DWD ICON - 7 km GFS - 25 km Basiskaart






























































Updatetijd (Europe/Amsterdam) Resolutie Lengte Stap
FMI Hirlam 07:15, 13:15, 19:15, 01:15 7.5 km 49h 1h
EWN WRFDA 10:15, 16:15, 22:15, 04:15 12 km 73h 1h
DWD ICON 11:45, 17:45, 23:45, 05:45 7 km 75h 1h
GFS 08:15, 14:15, 20:15, 02:15 25 km 237h 3h
30+ mm
25-30 mm
20-25 mm
15-20 mm
10-15 mm
6-10 mm
4-6 mm
2-4 mm
1-2 mm
0.5-1 mm
0.2-0.5 mm
0.1-0.2 mm
30+ mm
25-30 mm
20-25 mm
15-20 mm
10-15 mm
6-10 mm
4-6 mm
2-4 mm
1-2 mm
0.5-1 mm
0.2-0.5 mm
0.1-0.2 mm
Sneeuwval
Natte sneeuw
Hagel
Vorst
30+ mm
25-30 mm
20-25 mm
15-20 mm
10-15 mm
6-10 mm
4-6 mm
2-4 mm
1-2 mm
0.5-1 mm
0.2-0.5 mm
0.1-0.2 mm
Sneeuwval
Natte sneeuw
Hagel
Vorst
Onweer
50 mm
40 mm
30 mm
26 mm
22 mm
18 mm
14 mm
10 mm
9 mm
8 mm
7 mm
6 mm
5 mm
4.5 mm
4 mm
3.5 mm
3 mm
2.5 mm
2 mm
1.5 mm
1 mm
0.8 mm
0.6 mm
0.4 mm
0.2 mm
0.05 mm
35°
30°
25°
20°
15°
10°
-5°
-10°
-15°
-20°
-25°
-30°
-35°
33> m/s
29 m/s
25 m/s
21 m/s
17 m/s
14 m/s
11 m/s
8 m/s
5 m/s
3 m/s
0 m/s
2600 J/kg
2400 J/kg
2200 J/kg
2000 J/kg
1800 J/kg
1600 J/kg
1400 J/kg
1200 J/kg
1000 J/kg
800 J/kg
600 J/kg
400 J/kg
200 J/kg
70 dBZ
65 dBZ
60 dBZ
55 dBZ
50 dBZ
45 dBZ
40 dBZ
35 dBZ
30 dBZ
25 dBZ
20 dBZ
15 dBZ
10 dBZ
5 dBZ
-1 K
-2 K
-3 K
-4 K
-5 K
-6 K
-7 K
-8 K
-9 K
950 m²/s²
900 m²/s²
850 m²/s²
800 m²/s²
750 m²/s²
700 m²/s²
650 m²/s²
600 m²/s²
550 m²/s²
500 m²/s²
450 m²/s²
400 m²/s²
350 m²/s²
300 m²/s²
250 m²/s²
200 m²/s²
150 m²/s²
100 m²/s²
46 m/s
44 m/s
42 m/s
40 m/s
38 m/s
36 m/s
34 m/s
32 m/s
30 m/s
28 m/s
26 m/s
24 m/s
22 m/s
20 m/s
16 m/s
12 m/s
8 m/s
4 m/s
30 m/s
28 m/s
26 m/s
24 m/s
22 m/s
20 m/s
18 m/s
16 m/s
14 m/s
12 m/s
10 m/s
8 m/s
6 m/s
4 m/s
2 m/s
3.0
2.8
2.6
2.4
2.2
2.0
1.8
1.6
1.4
1.2
1.0
0.8
0.6
0.4
0.2
15
14
13
12
11
10
9
8
7
6
5
4
3
2
1
90%
80%
70%
60%
50%
40%
30%
20%
10%
42
40
</